Weather History for Mercury, NV

Change the Weather History Date:

Wednesday, December 26, 2012

  Actual Average Record
Temperature  
Mean Temperature 40 °F -  
Max Temperature 48 °F 52 °F 66 °F (2013)
Min Temperature 33 °F 32 °F 21 °F (2007)
Degree Days  
Heating Degree Days 24    
Moisture  
Dew Point 23 °F    
Average Humidity 51    
Maximum Humidity 82    
Minimum Humidity 22    
Precipitation  
Precipitation 0.00 in - - ()
Sea Level Pressure  
Sea Level Pressure 29.80 in    
Wind  
Wind Speed 7 mph (SE)    
Max Wind Speed 18 mph    
Max Gust Speed 25 mph    
Visibility 10 miles    
Events      
Averages and records for this station are not official NWS values.
T = Trace of Precipitation, MM = Missing Value Source: NWS Daily Summary

Daily Weather History Graph

Daily Weather History Graph

Search for Another Location

Airport:

Trip Planner

Search our weather history database for the weather conditions in past years. The results will help you decide how hot, cold, wet, or windy it might be!

Date:

Astronomy

Dec. 26, 2012 Rise Set
Actual Time 6:54 AM PST 4:35 PM PST
Civil Twilight 6:26 AM PST 5:04 PM PST
Nautical Twilight 5:53 AM PST 5:36 PM PST
Astronomical Twilight 5:22 AM PST 6:07 PM PST
Moon 3:31 PM PST (12/26) 5:22 AM PST (12/26)
Length of Visible Light 10h 37m
Length of Day
9h 40m
Waxing Gibbous, 98% of the Moon is Illuminated
Dec 26
Waxing Gibbous
Dec 28
Full
Jan 4
Last Quarter
Jan 11
New
Jan 18
First Quarter

Hourly Weather History & Observations

Time (PST) Temp. Windchill Dew Point Humidity Pressure Visibility Wind Dir Wind Speed Gust Speed Precip Events Conditions
12:52 AM 34.0 °F 29.8 °F 14.0 °F 44% 29.85 in 10.0 mi East 4.6 mph - N/A   Overcast
1:52 AM 34.0 °F 29.8 °F 15.1 °F 46% 29.85 in 10.0 mi West 4.6 mph - N/A   Overcast
2:52 AM 37.0 °F 33.3 °F 16.0 °F 42% 29.80 in 10.0 mi East 4.6 mph - 0.00 in   Overcast
3:52 AM 42.1 °F 33.6 °F 16.0 °F 35% 29.75 in 10.0 mi South 18.4 mph 24.2 mph N/A   Overcast
4:52 AM 43.0 °F 36.0 °F 24.1 °F 47% 29.74 in 10.0 mi South 13.8 mph 25.3 mph N/A   Overcast
5:52 AM 39.9 °F 33.9 °F 19.9 °F 45% 29.75 in 10.0 mi South 9.2 mph 18.4 mph N/A   Overcast
6:52 AM 39.0 °F 34.0 °F 19.9 °F 46% 29.77 in 10.0 mi ESE 6.9 mph - N/A   Overcast
7:52 AM 37.0 °F 28.5 °F 17.1 °F 44% 29.78 in 10.0 mi ESE 13.8 mph 19.6 mph N/A   Overcast
8:52 AM 37.0 °F 28.5 °F 19.0 °F 48% 29.81 in 10.0 mi ESE 13.8 mph - N/A   Overcast
9:52 AM 39.9 °F 35.1 °F 19.9 °F 45% 29.83 in 10.0 mi ESE 6.9 mph - N/A   Overcast
10:52 AM 42.1 °F 40.2 °F 21.9 °F 45% 29.81 in 10.0 mi NE 3.5 mph - N/A   Overcast
11:52 AM 42.1 °F - 23.0 °F 47% 29.78 in 10.0 mi Calm Calm - N/A   Overcast
12:52 PM 46.9 °F - 27.0 °F 46% 29.74 in 10.0 mi Variable 5.8 mph - N/A   Mostly Cloudy
1:52 PM 46.0 °F 42.5 °F 28.0 °F 50% 29.75 in 10.0 mi SW 6.9 mph - N/A   Overcast
2:52 PM 48.0 °F - 27.0 °F 44% 29.74 in 10.0 mi West 8.1 mph - N/A   Mostly Cloudy
3:52 PM 46.9 °F - 26.1 °F 44% 29.74 in 10.0 mi WSW 5.8 mph - N/A   Clear
4:52 PM 42.1 °F 39.2 °F 26.1 °F 53% 29.76 in 10.0 mi WNW 4.6 mph - N/A   Clear
5:52 PM 37.0 °F 33.3 °F 25.0 °F 62% 29.79 in 10.0 mi East 4.6 mph - N/A   Clear
6:52 PM 35.1 °F 31.0 °F 25.0 °F 67% 29.82 in 10.0 mi ENE 4.6 mph - N/A   Clear
7:52 PM 36.0 °F 33.3 °F 26.1 °F 67% 29.83 in 10.0 mi NE 3.5 mph - N/A   Mostly Cloudy
8:52 PM 35.1 °F 29.3 °F 27.0 °F 72% 29.85 in 10.0 mi SE 6.9 mph - N/A   Scattered Clouds
9:52 PM 36.0 °F 30.3 °F 28.9 °F 76% 29.85 in 10.0 mi NE 6.9 mph - N/A   Clear
10:52 PM 33.1 °F - 28.0 °F 82% 29.86 in 10.0 mi Calm Calm - N/A   Mostly Cloudy
11:52 PM 33.1 °F - 28.0 °F 82% 29.86 in 10.0 mi Calm Calm - N/A   Mostly Cloudy